Regional Weather Roundup
Issued by NWS

Home | Current Version | Previous Version | Graphics & Text | Print | Product List | Glossary On
Versions: 1 2 3 4 5 6 7 8 9 10 11 12 13 14 15 16 17 18 19 20 21 22 23 24 25 26 27 28 29 30 31 32 33 34 35 36 37 38 39 40 41 42 43 44 45 46 47 48 49 50
000
ASUS43 KDMX 042104
RWRIA

WEATHER ROUNDUP FOR IOWA
NATIONAL WEATHER SERVICE DES MOINES IA
  ISSUED BY NWS QUAD CITIES IA IL
300 PM CST WED MAR 04 2015

NOTE: "FAIR" INDICATES FEW OR NO CLOUDS BELOW 12,000 FEET WITH NO
SIGNIFICANT WEATHER AND/OR OBSTRUCTIONS TO VISIBILITY.

* - THESE STATIONS ARE NOT NWS STATIONS...THUS NOT UNDER NWS
QUALITY CONTROL.  THEY ALSO DO NOT REPORT WEATHER SUCH
AS PRECIPITATION OR FOG.

IAZ001>003-012>014-020>022-031>034-043>046-042200-
   NORTHWEST IOWA

CITY           SKY/WX    TMP DP  RH WIND       PRES   REMARKS
CARROLL *      MOSUNNY   21   3  45 NW22G31   30.26R WCI   5
CHEROKEE *     PTCLDY    17   2  53 NW17G26   30.28R WCI   1
DENNISON *     SUNNY     23   0  36 NW21G29   30.25R WCI   8
LE MARS *      SUNNY     18  -2  41 NW25      30.31S WCI  -1
ORANGE CITY *  SUNNY     16  -2  45 NW17G26   30.28R WCI   0
SHELDON *      PTSUNNY   16   0  48 NW18G28   30.26R WCI  -1
SIOUX CITY     SUNNY     22  -3  33 NW29G36   30.30R WCI   4
SPENCER        CLOUDY    18   4  54 NW21      30.26R WCI   1
STORM LAKE *   SUNNY     18   1  49 NW23G32   30.24R WCI   0
$$

IAZ055>058-069>071-079>083-090>094-042200-
   SOUTHWEST IOWA

CITY           SKY/WX    TMP DP  RH WIND       PRES   REMARKS
ATLANTIC *     SUNNY     27   1  33 NW24      30.26R WCI  12
AUDUBON *      SUNNY     25   0  33 NW10G24   30.25R WCI  15
CLARINDA *     PTSUNNY   32   3  29 N18       30.27F WCI  20
COUNCIL BLFS * SUNNY     27  -2  28 NW21G31   30.26R WCI  13
CRESTON *      MOSUNNY   28   5  37 NW17      30.22F WCI  16
HARLAN *       SUNNY     25   1  36 NW24      30.30R WCI   9
LAMONI         PTSUNNY   28   8  43 NW9       30.24F WCI  19
RED OAK *      SUNNY     30   0  27 NW17G24   30.27R WCI  18
SHENANDOAH *   MOSUNNY   32   1  27 NW15G26   30.28R WCI  22
$$

IAZ047>049-059>061-072>074-084-042200-
   CENTRAL IOWA

CITY           SKY/WX    TMP DP  RH WIND       PRES   REMARKS
AMES           FLURRIES  24  11  57 W15G28    30.23R WCI  11
ANKENY *       MOSUNNY   27   7  43 NW10G18   30.24S WCI  17
BOONE *        PTSUNNY   23   9  54 NW17G28   30.21R WCI   9
CHARITON *     MOSUNNY   27   5  39 NW15      30.24F WCI  15
DES MOINES     PTSUNNY   29   5  36 NW18      30.23F WCI  16
GRINNELL *     CLOUDY    22   8  55 W9G16     30.25S WCI  12
KNOXVILLE *    MOSUNNY   27   5  39 NW12G20   30.24F WCI  16
MARSHALLTOWN   CLOUDY    20   8  60 N6        30.24R WCI  12
NEWTON *       MOSUNNY   23   9  54 NW12      30.24S WCI  12
PELLA *        SUNNY     27  12  53 NW12      30.26F WCI  17
PERRY *          N/A     27  11  52 NW18G24   30.24R WCI  14
$$

IAZ004>006-015-016-023>025-035-036-042200-
   NORTH CENTRAL IOWA

CITY           SKY/WX    TMP DP  RH WIND       PRES   REMARKS
ALGONA *       CLOUDY    16  12  86 NW16      30.24R WCI   0
CLARION *      PTSUNNY   18  10  73 N9        30.23R WCI   6
ESTHERVILLE    PTSUNNY   13   2  61 NW20      30.24R WCI  -5
FORT DODGE *   MOSUNNY   21   3  45 NW15G23   30.24R WCI   8
MASON CITY     PTSUNNY   14   4  64 N15       30.24R WCI  -1
WEBSTER CITY * PTSUNNY   21   5  49 NW24G32   30.20R WCI   4
IOWA FALLS *   LGT SNOW  19  12  73 NW9       30.22S WCI   8
$$

IAZ007>011-017>019-026>030-037>042-050>054-066-042200-
   NORTHEAST IOWA

CITY           SKY/WX    TMP DP  RH WIND       PRES   REMARKS
CEDAR RAPIDS   SUNNY     15   6  67 NW15      30.25S WCI   0
CHARLES CITY * MOSUNNY   12   0  57 W9        30.24S WCI   0
CLINTON *      SUNNY     18   3  53 W14       30.27S WCI   4
DECORAH *      SUNNY     12  -4  48 W12G20    30.20F WCI  -2
DUBUQUE        SUNNY     14  -2  49 W14       30.21R WCI  -1
MONTICELLO *   MOSUNNY   14   0  52 NW12G17   30.27R WCI   0
OELWEIN *      SUNNY     12   1  62 W12       30.24R WCI  -2
WATERLOO       SUNNY     15   2  56 N9        30.25S WCI   3
$$

IAZ064-065-067-068-078-042200-
   EAST CENTRAL IOWA

CITY           SKY/WX    TMP DP  RH WIND       PRES   REMARKS
DAVENPORT      SUNNY     16   3  56 NW14      30.27R WCI   2
IOWA CITY      SUNNY     18   3  52 NW10      30.31R WCI   6
MT. PLEASANT * MOSUNNY   21   4  47 NW10      30.28S WCI  10
MUSCATINE *    SUNNY     19   5  53 NW13      30.30R WCI   7
QUAD CITIES    SUNNY     18   2  49 W14       30.28R WCI   4
$$

IAZ062-063-075>077-085>089-095>099-042200-
   SOUTHEAST IOWA

CITY           SKY/WX    TMP DP  RH WIND       PRES   REMARKS
BURLINGTON     MOSUNNY   19   2  47 NW13      30.27S WCI   6
FAIRFIELD *    MOSUNNY   21   1  42 N14       30.27F WCI   8
FORT MADISON * MOSUNNY   19   7  58 NW14      30.27F WCI   6
KEOKUK *       MOSUNNY   21   3  45 NW13      30.27S WCI   9
OSKALOOSA *    FAIR      24   6  47 NW10      30.26F WCI  13
CENTERVILLE *  FAIR      27   3  36 NW10      30.26F WCI  17
OTTUMWA        MOSUNNY   25   4  40 NW15G25   30.26S WCI  13
WASHINGTON *   MOSUNNY   21   7  53 N13       30.28R WCI   9
$$

ABBREVIATIONS USED IN REMARKS
   TC - TEMPERATURES IN CELSIUS
  WCI - WIND CHILL INDEX
   HX - HEAT INDEX
  VSB - VISIBILITY
$$


USA.gov is the U.S. government's official web portal to all federal, state and local government web resources and services.